Location: Prague
(50.0830°N, 14.4670°E)
Time: 21:26:21
(UTC+02:00)

Envisat - Visible Passes

Search period start: 21 September 2020 00:00
Search period end: 01 October 2020 00:00
Orbit: 764 x 766 km, 98.1° (Epoch: 21 September)

Date Brightness Start Highest point End Pass type
(mag) Time Alt. Az. Time Alt. Az. Time Alt. Az.
22 Sep 6.3 05:42:44 10° ENE 05:45:11 13° E 05:47:38 10° ESE visible
23 Sep 6.3 19:44:10 10° WSW 19:47:00 15° W 19:49:50 10° NW visible
24 Sep 5.9 06:07:03 10° NE 06:10:58 22° E 06:14:52 10° SE visible
25 Sep 6.7 05:32:36 10° ENE 05:33:39 11° E 05:34:42 10° E visible
26 Sep 6.1 19:32:01 10° SW 19:35:29 18° W 19:38:58 10° NW visible
27 Sep 6.1 05:56:03 10° NE 05:59:28 18° E 06:02:54 10° SE visible
28 Sep 6.7 20:00:03 10° W 20:01:18 11° W 20:02:34 10° WNW visible
29 Sep 5.4 06:20:48 10° NNE 06:25:12 29° E 06:29:34 10° SSE visible
29 Sep 5.9 19:20:03 10° SW 19:23:59 22° W 19:27:57 10° NW visible
30 Sep 6.3 05:45:12 10° NE 05:47:58 15° E 05:50:43 10° ESE visible
